Weather History for KLUX - October, 2012

Change the Weather History Date:

Sunday, October 28, 2012

  Actual Average (KGSP) Record (KGSP)
Temperature  
Mean Temperature 60 °F 58 °F  
Max Temperature 71 °F 69 °F 85 °F (1991)
Min Temperature 46 °F 47 °F 27 °F (1914)
Degree Days  
Heating Degree Days 6 8  
Month to date heating degree days 128  
Since 1 July heating degree days 145  
Cooling Degree Days 0 1  
Month to date cooling degree days 47  
Year to date cooling degree days 1709  
Growing Degree Days 10 (Base 50)    
Moisture  
Dew Point 47 °F    
Average Humidity 71    
Maximum Humidity 94    
Minimum Humidity 41    
Precipitation  
Precipitation 0.00 in 0.10 in 1.13 in (1885)
Month to date precipitation 3.13  
Year to date precipitation 39.07  
Snow  
Snow 0.00 in 0.00 in 0.00 in ()
Month to date snowfall 0.0  
Since 1 July snowfall 0.0  
Since 1 September snowfall 0.0  
Snow Depth -    
Sea Level Pressure  
Sea Level Pressure 29.72 in    
Wind  
Wind Speed 6 mph (NNW)    
Max Wind Speed 17 mph    
Max Gust Speed 25 mph    
Visibility 10 miles    
Events      
T = Trace of Precipitation, MM = Missing Value Source: NWS Daily Summary

Daily Weather History Graph

Daily Weather History Graph

Search for Another Location

Airport or City:

Trip Planner

Search our weather history database for the weather conditions in past years. The results will help you decide how hot, cold, wet, or windy it might be!

Date:

Astronomy

Oct. 28, 2012 Rise Set
Actual Time 7:44 AM EDT 6:37 PM EDT
Civil Twilight 7:18 AM EDT 7:03 PM EDT
Nautical Twilight 6:49 AM EDT 7:33 PM EDT
Astronomical Twilight 6:20 AM EDT 8:02 PM EDT
Moon 5:54 PM EDT (10/28) 6:37 AM EDT (10/28)
Length of Visible Light 11h 44m
Length of Day
10h 52m
Waxing Gibbous, 99% of the Moon is Illuminated
Oct 28
Waxing Gibbous
Oct 29
Full
Nov 6
Last Quarter
Nov 13
New
Nov 20
First Quarter

Hourly Weather History & Observations

Time (EDT) Temp. Windchill Dew Point Humidity Pressure Visibility Wind Dir Wind Speed Gust Speed Precip Events Conditions
12:15 AM 59.0 °F - 53.6 °F 82% 29.78 in 10.0 mi North 4.6 mph - N/A   Clear
12:35 AM 59.0 °F - 53.6 °F 82% 29.78 in 10.0 mi North 4.6 mph - N/A   Clear
1:15 AM 57.2 °F - 53.6 °F 88% 29.77 in 10.0 mi NNW 3.5 mph - N/A   Clear
1:35 AM 57.2 °F - 51.8 °F 82% 29.77 in 10.0 mi North 4.6 mph - N/A   Clear
1:55 AM 57.2 °F - 51.8 °F 82% 29.76 in 10.0 mi North 6.9 mph - N/A   Clear
2:35 AM 55.4 °F - 51.8 °F 88% 29.75 in 10.0 mi North 5.8 mph - N/A   Clear
2:55 AM 55.4 °F - 51.8 °F 88% 29.75 in 10.0 mi NNW 4.6 mph - N/A   Clear
3:15 AM 55.4 °F - 51.8 °F 88% 29.74 in 10.0 mi North 3.5 mph - N/A   Clear
3:35 AM 55.4 °F - 51.8 °F 88% 29.73 in 10.0 mi North 4.6 mph - N/A   Clear
3:55 AM 55.4 °F - 51.8 °F 88% 29.73 in 10.0 mi North 4.6 mph - N/A   Clear
4:15 AM 55.4 °F - 50.0 °F 82% 29.73 in 10.0 mi North 4.6 mph - N/A   Clear
4:35 AM 53.6 °F - 50.0 °F 88% 29.73 in 10.0 mi North 4.6 mph - N/A   Clear
4:55 AM 53.6 °F - 50.0 °F 88% 29.73 in 10.0 mi North 3.5 mph - N/A   Clear
5:15 AM 53.6 °F - 50.0 °F 88% 29.73 in 10.0 mi North 4.6 mph - N/A   Clear
5:35 AM 53.6 °F - 50.0 °F 88% 29.73 in 10.0 mi North 4.6 mph - N/A   Clear
5:55 AM 51.8 °F - 50.0 °F 94% 29.73 in 10.0 mi North 4.6 mph - N/A   Clear
6:15 AM 51.8 °F - 50.0 °F 94% 29.73 in 10.0 mi NNW 4.6 mph - N/A   Clear
6:35 AM 51.8 °F - 50.0 °F 94% 29.73 in 10.0 mi NNW 4.6 mph - N/A   Clear
6:55 AM 51.8 °F - 50.0 °F 94% 29.73 in 10.0 mi NNW 3.5 mph - N/A   Clear
7:15 AM 51.8 °F - 50.0 °F 94% 29.73 in 10.0 mi North 4.6 mph - N/A   Clear
7:35 AM 51.8 °F - 50.0 °F 94% 29.73 in 10.0 mi North 5.8 mph - N/A   Clear
7:55 AM 51.8 °F - 50.0 °F 94% 29.74 in 10.0 mi North 4.6 mph - N/A   Clear
8:15 AM 51.8 °F - 50.0 °F 94% 29.74 in 10.0 mi North 5.8 mph - N/A   Clear
8:35 AM 53.6 °F - 50.0 °F 88% 29.74 in 10.0 mi North 5.8 mph - N/A   Clear
8:55 AM 53.6 °F - 50.0 °F 88% 29.74 in 10.0 mi NNW 5.8 mph - N/A   Clear
9:15 AM 53.6 °F - 50.0 °F 88% 29.74 in 10.0 mi NNW 5.8 mph - N/A   Clear
9:35 AM 53.6 °F - 50.0 °F 88% 29.74 in 10.0 mi NNW 6.9 mph - N/A   Clear
9:55 AM 55.4 °F - 50.0 °F 82% 29.74 in 10.0 mi NNW 8.1 mph - N/A   Clear
10:15 AM 59.0 °F - 48.2 °F 67% 29.74 in 10.0 mi North 6.9 mph - N/A   Clear
10:35 AM 60.8 °F - 50.0 °F 68% 29.73 in 10.0 mi North 9.2 mph - N/A   Clear
10:55 AM 62.6 °F - 50.0 °F 63% 29.73 in 10.0 mi NNW 11.5 mph 16.1 mph N/A   Clear
11:35 AM 66.2 °F - 50.0 °F 56% 29.73 in 10.0 mi NNE 9.2 mph - N/A   Clear
11:55 AM 68.0 °F - 46.4 °F 46% 29.72 in 10.0 mi NNE 9.2 mph - N/A   Clear
12:15 PM 68.0 °F - 46.4 °F 46% 29.72 in 10.0 mi North 6.9 mph - N/A   Clear
12:35 PM 68.0 °F - 46.4 °F 46% 29.71 in 10.0 mi North 9.2 mph - N/A   Clear
1:15 PM 69.8 °F - 46.4 °F 43% 29.69 in 10.0 mi North 9.2 mph - N/A   Clear
1:35 PM 69.8 °F - 46.4 °F 43% 29.68 in 10.0 mi NE 6.9 mph - N/A   Clear
1:55 PM 69.8 °F - 46.4 °F 43% 29.68 in 10.0 mi NNE 3.5 mph - N/A   Clear
2:15 PM 69.8 °F - 46.4 °F 43% 29.68 in 10.0 mi Calm Calm - N/A   Scattered Clouds
2:35 PM 71.6 °F - 46.4 °F 41% 29.67 in 10.0 mi NW 6.9 mph - N/A   Mostly Cloudy
2:55 PM 69.8 °F - 46.4 °F 43% 29.67 in 10.0 mi NNW 6.9 mph - N/A   Overcast
3:15 PM 69.8 °F - 46.4 °F 43% 29.66 in 10.0 mi North 4.6 mph - N/A   Overcast
3:35 PM 69.8 °F - 46.4 °F 43% 29.66 in 10.0 mi North 5.8 mph - N/A   Overcast
3:55 PM 69.8 °F - 46.4 °F 43% 29.66 in 10.0 mi WNW 5.8 mph - N/A   Overcast
4:15 PM 69.8 °F - 46.4 °F 43% 29.66 in 10.0 mi NW 8.1 mph - N/A   Overcast
4:35 PM 64.4 °F - 50.0 °F 59% 29.67 in 10.0 mi NW 15.0 mph 25.3 mph N/A   Overcast
4:55 PM 60.8 °F - 50.0 °F 68% 29.68 in 10.0 mi NW 17.3 mph 23.0 mph N/A   Scattered Clouds
5:15 PM 59.0 °F - 48.2 °F 67% 29.68 in 10.0 mi NW 15.0 mph 23.0 mph N/A   Scattered Clouds
5:35 PM 59.0 °F - 48.2 °F 67% 29.68 in 10.0 mi NNW 15.0 mph 21.9 mph N/A   Scattered Clouds
5:55 PM 57.2 °F - 46.4 °F 67% 29.69 in 10.0 mi NNW 9.2 mph 17.3 mph N/A   Mostly Cloudy
6:15 PM 55.4 °F - 46.4 °F 72% 29.69 in 10.0 mi NNW 6.9 mph - N/A   Overcast
6:55 PM 55.4 °F - 44.6 °F 67% 29.70 in 10.0 mi NNW 6.9 mph - N/A   Overcast
7:35 PM 53.6 °F - 44.6 °F 72% 29.71 in 10.0 mi NNW 6.9 mph - N/A   Overcast
7:55 PM 53.6 °F - 42.8 °F 67% 29.72 in 10.0 mi NNW 11.5 mph 18.4 mph N/A   Overcast
8:15 PM 53.6 °F - 42.8 °F 67% 29.72 in 10.0 mi NNW 9.2 mph 17.3 mph N/A   Overcast
8:35 PM 53.6 °F - 41.0 °F 62% 29.73 in 10.0 mi NNW 8.1 mph 16.1 mph N/A   Overcast
8:55 PM 53.6 °F - 41.0 °F 62% 29.73 in 10.0 mi NNW 10.4 mph 16.1 mph N/A   Overcast
9:35 PM 51.8 °F - 39.2 °F 62% 29.74 in 10.0 mi NNW 6.9 mph - N/A   Overcast
10:15 PM 50.0 °F - 37.4 °F 62% 29.74 in 10.0 mi NNW 9.2 mph 17.3 mph N/A   Scattered Clouds
10:35 PM 50.0 °F - 35.6 °F 58% 29.74 in 10.0 mi NNW 15.0 mph 21.9 mph N/A   Scattered Clouds
11:15 PM 48.2 °F - 35.6 °F 62% 29.75 in 10.0 mi NNW 8.1 mph - N/A   Scattered Clouds
11:35 PM 48.2 °F - 35.6 °F 62% 29.75 in 10.0 mi NNW 9.2 mph 16.1 mph N/A   Clear
11:55 PM 46.4 °F 42.9 °F 35.6 °F 66% 29.75 in 10.0 mi NNW 6.9 mph - N/A   Clear